Regional Weather Roundup
Issued by NWS Memphis, TN

Home | Current Version | Previous Version | Text Only | Print | Product List | Glossary On
Versions: 1 2 3 4 5 6 7 8 9 10 11 12 13 14 15 16 17 18 19 20 21 22 23 24 25 26 27 28 29 30 31 32 33 34 35 36 37 38 39 40 41 42 43 44 45 46 47 48 49 50
000
ASUS44 KMEG 272310
RWRMEG
MEMPHIS CWA HOURLY WEATHER ROUNDUP
NATIONAL WEATHER SERVICE MEMPHIS TN
600 PM CDT WED AUG 27 2014

...WEST TENNESSEE...

CITY           SKY/WX    TMP DP  RH WIND       PRES   REMARKS
MEMPHIS INTL   MOSUNNY   91  62  37 SE7       30.01F HX  91
NWS MEMPHIS      N/A     89 N/A N/A MISG        N/A
JACKSON        SUNNY     88  70  55 S3        30.02F HX  93
LEXINGTON      MOSUNNY   90  68  48 CALM      30.02F HX  93
SAVANNAH       SUNNY     90  68  48 CALM      30.03F HX  93
DYERSBURG      SUNNY     90  64  43 CALM      30.02F HX  91
UNION CITY     SUNNY     90  75  62 S3        30.00F HX 100
PARIS          SUNNY     84  72  65 W5        30.03F
HUNTINGDON     MOSUNNY   83  72  69 N5        30.02F


...EASTERN ARKANSAS...

CITY           SKY/WX    TMP DP  RH WIND       PRES   REMARKS
JONESBORO      SUNNY     90  70  51 SE9       30.01S HX  95
WEST MEMPHIS   MOSUNNY   90  67  46 E7        29.99F HX  93
BATESVILLE     SUNNY     91  68  46 SE8G16    30.01S HX  95
NEWPORT        SUNNY     91  72  53 SE10      30.02S HX  98
WALNUT RIDGE   MOSUNNY   91  54  27 SE10      30.00S
BLYTHEVILLE    SUNNY     89  74  60 S7        30.02F HX  98
SEARCY         SUNNY     91  70  50 MISG      30.01F HX  96
STUTTGART      SUNNY     90  66  45 E9        30.01F HX  92
PINE BLUFF     MOSUNNY   88  70  55 E9        30.00F HX  93
MONTICELLO     SUNNY     91  63  39 VRB3      30.00F HX  92


...NORTH MISSISSIPPI...

CITY           SKY/WX    TMP DP  RH WIND       PRES   REMARKS
TUPELO         SUNNY     89  61  38 E7        30.01F
OLIVE BRANCH   MOSUNNY   88  68  51 NE5       30.02F HX  91
CLARKSDALE     SUNNY     90  68  48 CALM      30.01F HX  93
CORINTH        SUNNY     88  64  45 VRB3      30.02F
GRENADA        MOSUNNY   90  63  40 CALM      30.00F HX  90
GREENWOOD      MOSUNNY   89  68  49 CALM      30.00F HX  93
COLUMBUS       MOSUNNY   91  61  37 NE6       30.00F HX  90
STARKVILLE     FAIR      86  61  42 CALM      30.01S
GOLDEN TRIANGL MOSUNNY   90  63  40 N7        30.01F HX  90


...SOUTHEAST MISSOURI...

CITY           SKY/WX    TMP DP  RH WIND       PRES   REMARKS
WEST PLAINS    PTSUNNY   87  66  49 SE13G20   30.06R
POPLAR BLUFF   MOSUNNY   91  69  48 S7        30.00F HX  96
CAPE GIRARDEAU SUNNY     88  74  63 SE5       30.01S HX  96


...NORTHWEST ALABAMA...

CITY           SKY/WX    TMP DP  RH WIND       PRES   REMARKS
MUSCLE SHOALS  MOSUNNY   90  64  42 CALM      30.03F HX  91


...MIDDLE TENNESSEE...

CITY           SKY/WX    TMP DP  RH WIND       PRES   REMARKS
NASHVILLE      MOSUNNY   89  68  49 SE9       30.03F HX  93
CLARKSVILLE    MOSUNNY   88  72  58 S3        30.01F HX  94
DICKSON        MOSUNNY   84  73  70 CALM      30.04F HX  91
COLUMBIA         N/A     90  73  58 W5        30.02S HX  98
LEWISBURG      SUNNY     89  65  44 NE5       30.02F HX  90


...WESTERN KENTUCKY...

CITY           SKY/WX    TMP DP  RH WIND       PRES   REMARKS
PADUCAH        MOSUNNY   92  71  50 E6        30.00F HX  98
FORT CAMPBELL  MOSUNNY   89  73  59 SW7       30.01F HX  96


...CENTRAL ARKANSAS...

CITY           SKY/WX    TMP DP  RH WIND       PRES   REMARKS
LITTLE ROCK    MOSUNNY   90  67  46 SE8       30.00F HX  93


SKY/WX REPORTED AS FAIR MEANS FEW OR NO CLOUDS BELOW
12 THOUSAND FEET.



USA.gov is the U.S. government's official web portal to all federal, state and local government web resources and services.